Dewpoint
40 40 41 40 40 40 39 40 39 39 38 38 38 38 37 37 36 35 37 35 34 33 35 35 35 36 36 40 40 40 40 40 40 40 39 39 38 38 38 37 37 36 36 36 35 35 35 35 35 35 35 35 35 35 35 35 35 35 36 36 37 38 39 40 40 40 41 41 41 41 40 40 40 40 39 39 40 40 40 40 40 40 40 40 40 41
40 40 40 40 40 39 39 38 37 36 35 35 36 36 35 33 33 34 33 34 33 33 34 34 34 33 33 38 40 39 39 39 39 39 38 38 37 37 36 36 36 35 35 35 35 34 34 34 34 34 34 34 34 34 34 34 34 34 34 35 35 36 37 38 38 39 39 40 40 39 39 39 39 39 38 39 39 39 39 39 39 40 40 40 40 40
40 40 40 40 39 38 38 37 35 34 34 34 34 34 31 31 32 32 32 32 32 33 33 33 33 32 32 36 38 38 38 38 38 37 37 37 36 36 35 35 35 34 34 34 33 33 33 33 33 33 33 33 34 34 34 33 33 33 33 33 33 34 35 35 36 37 37 38 38 38 38 38 37 37 38 38 38 38 39 39 39 39 39 39 39 40
39 39 39 39 38 37 37 35 34 33 33 33 32 32 30 31 32 32 31 30 30 31 31 31 31 31 31 34 35 37 36 36 36 36 35 35 35 34 34 33 33 33 33 33 32 32 32 32 33 33 33 33 33 33 33 33 33 33 33 32 32 32 33 34 34 35 35 36 36 36 36 36 36 36 37 37 37 38 38 38 38 38 38 38 38 39
38 38 38 37 36 36 35 33 33 33 34 32 31 30 30 31 31 31 30 29 28 29 29 29 30 30 31 31 34 35 35 34 34 34 33 33 32 32 32 32 32 32 32 32 32 32 32 32 32 32 33 33 33 33 33 33 33 33 32 32 32 32 31 32 32 33 34 35 35 35 35 35 35 35 36 36 36 37 37 37 37 37 37 37 37 37
37 37 36 35 35 35 33 33 33 33 32 31 30 30 30 31 31 30 29 28 28 28 28 28 28 28 29 31 34 35 34 33 32 32 31 31 31 31 31 31 31 31 31 31 31 31 32 32 32 32 32 32 32 32 32 32 32 32 32 32 32 31 31 31 31 32 33 33 34 34 35 35 35 35 35 35 35 36 36 36 36 36 36 36 36 36
35 35 34 32 32 32 32 32 33 33 31 31 31 30 30 30 30 28 27 27 27 27 27 27 26 26 26 30 33 35 33 33 33 32 32 31 31 31 31 31 31 31 31 31 31 31 31 31 31 31 31 32 32 32 32 32 32 32 32 31 31 31 31 31 31 31 32 33 33 34 34 34 34 34 34 34 35 35 35 36 36 36 36 36 36 36
33 32 31 31 31 31 31 31 31 32 31 31 30 30 30 30 29 28 26 26 26 26 26 25 25 24 23 25 28 31 31 30 30 31 31 32 32 32 31 31 31 31 31 31 31 31 31 30 30 30 31 31 31 31 31 31 31 31 31 31 31 31 31 31 31 31 32 32 33 34 34 34 34 34 34 34 34 34 35 35 35 35 35 35 35 35
31 31 30 29 29 30 30 30 30 29 29 29 29 28 28 28 28 27 27 26 26 25 25 24 23 23 23 22 24 27 31 30 28 26 27 29 29 30 32 32 31 31 30 30 30 30 29 29 29 29 30 30 30 30 30 30 30 30 30 30 30 30 30 31 31 31 32 32 33 34 34 34 34 34 34 34 34 34 34 34 34 35 35 35 35 35
30 29 29 28 28 28 29 29 29 28 26 28 27 27 26 26 26 26 27 26 26 25 25 24 23 23 23 22 23 26 29 31 30 29 30 29 28 29 32 32 32 31 29 29 29 28 28 28 28 29 29 30 30 30 30 30 30 30 30 30 30 30 30 30 31 31 31 31 32 32 33 33 34 34 33 33 33 33 33 33 33 34 34 35 35 35
28 28 27 28 27 27 27 28 28 27 26 26 26 26 25 25 25 25 25 25 25 24 23 24 24 23 23 23 24 25 25 25 26 27 29 29 29 29 30 30 31 31 29 29 28 28 27 28 28 29 29 29 29 29 30 30 30 30 31 31 31 31 31 31 31 31 31 31 31 31 32 32 32 32 32 32 32 32 32 33 33 33 33 34 34 35
28 27 27 27 27 27 27 27 27 27 27 26 26 24 24 24 24 24 24 24 23 23 23 23 23 23 23 23 24 24 23 22 22 22 22 23 25 26 26 26 28 29 28 29 29 29 28 28 29 29 28 28 28 29 29 29 30 30 31 31 31 31 31 31 31 31 31 31 31 31 31 31 31 31 31 31 32 32 32 32 32 32 33 33 34 35
27 26 26 26 26 27 27 27 27 26 26 26 24 23 23 23 23 22 22 23 23 23 22 23 22 22 22 23 23 24 22 22 22 22 21 21 21 21 21 22 23 23 23 24 25 26 29 30 30 30 29 30 30 29 28 29 30 30 30 31 31 31 31 31 32 32 32 32 32 32 32 32 32 31 31 31 32 32 32 32 32 32 33 33 34 34
26 26 26 26 26 26 26 26 25 25 24 23 23 23 23 23 23 22 22 22 22 22 22 22 22 22 23 23 23 23 22 22 21 21 20 20 20 20 20 22 22 22 21 21 21 23 29 30 29 29 31 32 32 31 31 30 30 30 31 31 31 31 31 31 32 32 32 32 33 33 33 32 32 32 31 31 32 32 32 32 32 33 33 34 34 35
26 26 26 26 25 25 24 24 23 23 22 22 22 22 22 22 22 22 22 21 21 21 21 21 21 21 22 23 22 22 22 21 20 20 20 20 19 19 20 22 22 22 21 21 21 22 27 27 26 25 27 30 31 31 32 33 32 31 31 31 31 31 32 32 32 32 32 32 33 33 33 33 32 32 32 32 32 32 32 32 33 33 34 34 35 35
25 25 25 24 24 23 23 22 22 22 22 22 22 22 22 22 22 21 21 21 20 20 20 20 19 20 21 23 23 23 22 21 20 20 20 20 19 19 19 21 22 22 22 22 22 22 23 23 23 23 24 28 30 30 28 30 31 31 31 31 31 32 32 32 32 32 32 32 32 33 33 33 33 32 32 32 32 32 32 33 33 34 34 34 35 35
23 24 23 23 22 22 22 22 22 22 21 21 21 21 22 21 21 21 20 20 19 19 19 18 18 18 18 21 22 23 22 21 20 20 19 19 19 20 19 21 22 22 22 22 22 22 22 22 22 23 25 31 31 30 28 29 30 30 31 31 31 31 32 32 32 32 32 32 32 32 33 33 33 33 32 32 32 32 33 33 33 34 34 34 35 35
22 22 22 22 22 22 21 21 21 20 20 21 21 21 20 19 19 20 19 20 19 19 18 17 17 17 17 18 20 21 22 21 20 20 19 19 19 19 19 21 22 22 21 21 22 22 22 21 22 23 25 28 29 28 28 28 29 30 31 31 31 31 32 32 32 32 32 32 32 33 33 33 33 33 33 33 32 32 32 33 33 34 34 34 35 35
22 21 21 21 21 21 21 21 21 21 21 21 21 21 21 20 20 19 19 19 18 18 17 17 17 17 17 18 19 20 21 21 21 20 19 19 19 19 19 21 22 22 21 22 22 22 22 21 24 28 31 28 27 27 28 28 29 30 30 31 31 31 32 32 32 32 33 33 33 33 33 33 33 33 33 33 33 33 33 33 33 33 34 34 35 35
22 21 21 21 21 20 20 22 23 24 23 23 22 21 20 19 19 19 19 18 18 17 17 17 17 17 17 18 20 21 20 21 20 19 18 18 18 18 17 20 21 21 19 21 21 21 21 20 22 24 28 28 27 27 28 29 29 30 30 31 31 32 32 33 33 33 33 33 33 33 33 32 32 33 33 33 33 33 33 33 33 33 34 34 35 35
21 21 20 20 21 22 22 23 24 25 26 23 21 18 19 18 18 18 18 18 17 17 17 17 18 18 19 19 20 21 19 21 21 19 17 17 17 18 19 19 19 18 19 20 21 21 21 20 19 22 28 28 28 28 28 29 29 29 30 30 31 31 32 32 32 33 33 33 33 33 33 33 32 33 33 33 33 33 33 33 33 33 33 34 34 35
22 22 20 19 21 23 25 23 25 26 26 22 21 21 21 19 18 18 17 17 18 18 19 19 20 20 20 21 22 21 18 21 21 19 17 17 17 18 19 19 19 18 20 21 20 20 20 20 20 22 27 28 28 28 28 28 28 29 29 30 31 31 31 31 31 32 32 33 33 33 33 33 33 33 33 33 33 33 33 33 33 33 33 34 34 34
23 22 20 20 22 23 25 23 23 25 26 23 23 23 21 21 20 20 19 19 19 20 20 20 20 20 20 21 21 21 20 21 21 20 18 17 17 18 18 19 19 19 20 20 20 20 20 21 21 22 27 29 29 28 28 28 28 28 29 30 30 30 31 31 31 31 31 32 32 32 33 33 33 33 33 34 34 33 33 33 33 33 34 34 34 34
22 22 22 22 22 22 23 23 22 22 23 23 22 21 20 21 22 22 21 21 20 19 19 19 19 19 19 21 21 21 20 21 20 20 19 18 17 18 18 19 20 21 21 21 21 21 21 21 21 22 25 28 29 29 28 28 28 28 29 29 30 30 30 30 31 31 31 31 31 31 32 32 33 33 34 34 34 34 34 34 34 34 34 34 34 34
24 24 24 25 25 26 26 25 25 25 24 22 22 22 22 24 25 24 22 21 20 20 19 19 18 18 17 21 21 20 19 18 19 19 19 17 17 17 18 19 20 20 21 21 20 20 20 21 22 22 22 25 27 29 28 28 28 28 29 29 30 30 30 30 30 30 30 31 31 31 31 31 32 32 33 33 33 34 34 34 34 34 34 34 34 34
29 29 29 30 31 31 31 31 31 30 29 27 25 23 24 24 23 22 21 21 20 20 19 17 16 16 16 17 18 19 20 18 18 19 19 18 17 17 17 18 19 19 21 20 21 22 22 22 22 21 21 22 26 29 29 28 28 28 29 29 29 29 29 29 30 30 30 30 31 31 31 31 31 31 32 32 32 33 33 33 33 34 34 34 34 34
32 32 32 32 32 32 32 31 31 31 31 31 29 27 25 22 21 20 20 19 19 19 18 16 15 15 16 16 17 18 19 21 20 18 18 18 17 17 17 18 18 19 20 20 21 22 24 24 23 22 21 20 23 27 29 28 28 28 28 28 28 28 28 28 29 29 30 30 30 31 31 31 31 31 31 32 32 32 32 32 33 33 33 33 33 33
31 31 31 31 31 31 31 30 30 29 29 29 30 30 27 23 21 19 18 18 18 18 18 17 16 16 16 16 17 17 18 21 21 20 19 19 18 17 17 17 18 18 19 20 21 23 25 23 22 20 20 20 22 25 27 28 28 28 28 29 29 28 28 28 28 28 29 29 30 30 30 31 31 31 31 31 31 32 32 32 32 32 32 32 32 32
31 31 31 31 30 30 30 30 29 28 27 27 28 28 28 24 21 20 19 19 18 18 18 18 17 17 16 16 16 17 17 20 21 21 20 19 18 17 17 17 17 17 18 19 19 19 19 20 19 17 17 22 24 23 24 26 26 27 28 29 29 29 28 28 28 28 28 29 29 29 30 30 30 31 31 31 31 31 31 32 32 32 32 32 31 30
27 27 27 28 28 28 29 27 28 29 28 27 27 27 28 24 22 21 19 19 19 18 18 18 18 17 16 16 16 16 17 18 20 21 19 19 18 17 16 17 17 17 17 17 17 17 17 18 19 19 19 22 23 22 21 22 24 25 25 27 28 29 29 28 28 28 28 28 28 29 29 29 30 30 30 31 31 31 31 31 31 31 31 30 29 27
22 24 23 23 23 23 23 23 25 26 26 27 27 27 26 22 21 20 20 19 19 18 17 17 17 17 17 16 16 15 15 18 21 22 19 19 18 17 16 17 16 16 16 16 16 15 15 17 19 21 21 21 21 21 22 22 22 23 23 24 26 27 30 29 28 28 28 28 28 28 29 29 29 29 30 30 30 30 31 31 31 31 31 29 27 26
22 23 23 22 20 19 20 21 21 21 22 23 25 25 25 23 22 21 20 19 19 19 17 17 17 17 17 17 17 16 17 18 22 24 21 19 18 17 15 16 16 16 16 16 16 15 13 16 18 19 18 19 20 20 22 22 22 22 22 22 23 24 28 28 28 28 28 28 28 28 29 29 29 29 29 29 30 30 30 30 30 30 30 29 27 26
21 21 20 20 19 18 19 18 18 19 20 20 20 20 22 23 24 24 21 20 20 20 18 17 17 17 16 16 16 17 18 18 22 25 24 20 18 17 15 16 15 16 16 17 16 15 14 14 16 17 18 19 20 20 21 22 23 22 22 22 22 22 25 26 26 26 27 28 28 29 29 29 29 29 29 30 30 30 30 30 30 30 29 29 28 27
19 19 18 18 17 17 17 16 16 17 19 19 19 19 18 21 23 24 23 21 21 20 20 19 18 17 16 15 16 17 17 18 23 27 26 20 17 17 15 15 15 15 15 16 16 15 15 14 15 16 18 19 20 20 20 21 22 22 20 21 21 21 22 24 24 25 26 26 26 26 26 27 29 30 30 30 30 30 30 30 30 30 30 30 29 28
17 18 17 17 16 16 17 16 16 17 18 18 19 19 20 20 20 21 22 22 21 20 19 20 19 19 17 17 17 17 18 18 23 27 26 21 18 17 16 16 15 15 15 15 15 15 15 15 17 18 18 18 19 19 20 19 20 20 20 21 21 21 21 21 22 23 24 24 23 23 23 24 26 27 29 30 31 31 30 30 30 30 30 30 30 29
17 17 17 16 16 17 17 17 17 18 18 18 18 18 20 20 19 19 20 20 21 22 21 20 20 20 19 19 18 18 18 18 22 25 26 21 19 17 17 17 17 17 16 16 16 15 15 16 18 20 19 18 17 17 19 19 19 20 20 21 22 22 21 21 21 21 21 22 22 22 22 23 24 26 27 30 30 30 30 30 30 30 30 30 29 29
17 17 17 15 15 16 18 17 17 17 17 17 17 17 19 18 19 19 18 18 19 21 22 22 22 22 22 19 19 19 19 19 20 22 24 21 19 18 17 17 18 19 17 17 17 17 17 18 18 19 18 17 16 16 18 19 19 19 19 20 21 21 20 21 21 21 20 22 22 23 23 24 25 26 27 29 30 30 30 30 30 30 30 30 29 29
16 16 16 15 14 15 16 15 16 17 17 17 17 17 18 17 17 17 17 16 16 17 19 20 20 22 25 24 22 19 18 18 18 18 20 19 19 19 18 17 19 20 19 18 18 18 18 18 18 17 17 17 17 18 20 20 19 19 19 20 20 20 19 19 20 20 20 22 23 24 26 26 25 24 25 26 26 26 26 26 27 30 30 30 30 30
15 15 15 15 15 15 15 15 16 17 17 17 17 17 17 17 17 18 17 16 16 16 16 17 18 18 17 19 22 23 22 19 16 14 14 15 17 18 19 18 18 18 19 18 19 19 19 19 18 17 17 17 18 18 19 19 18 18 18 19 20 19 19 19 20 21 22 21 22 24 24 23 22 22 22 22 22 23 23 23 25 27 27 26 27 28
15 15 15 17 18 16 14 16 17 17 17 18 20 20 19 18 18 17 17 18 18 17 15 15 16 17 18 20 22 23 23 21 19 17 13 13 15 17 19 19 18 18 19 18 19 20 20 20 19 19 19 18 18 18 19 19 19 20 22 21 20 20 22 22 21 20 20 19 19 21 22 21 22 22 22 21 21 21 22 22 22 24 26 24 22 22
15 15 15 17 19 19 19 19 18 17 18 18 17 17 19 18 17 17 17 17 17 17 17 17 17 17 16 14 15 17 19 19 20 19 14 13 14 16 19 19 19 19 19 19 20 20 21 20 20 20 19 19 19 19 20 20 21 22 22 21 20 20 22 23 22 21 19 18 18 20 22 23 23 23 22 22 22 22 22 22 21 22 25 23 22 20
18 17 16 17 17 17 17 16 17 18 18 16 16 16 17 17 17 16 16 16 16 15 15 16 16 16 15 15 14 13 14 16 18 19 17 15 14 16 17 18 19 20 19 20 20 21 21 21 21 20 20 20 20 19 19 20 21 22 22 21 21 22 23 22 20 17 17 18 18 20 23 22 22 21 22 22 21 21 24 22 23 25 26 23 21 20
18 17 16 16 16 16 17 18 18 18 18 16 15 15 16 16 17 17 17 15 14 15 16 16 16 15 14 13 13 13 13 13 14 17 18 15 14 15 17 17 18 19 21 21 21 21 21 22 22 21 21 21 21 20 20 20 20 21 21 21 22 21 21 20 17 16 17 20 21 20 20 20 20 20 21 22 23 23 23 25 27 28 27 25 23 21
17 16 15 14 15 16 17 17 17 16 16 16 16 16 15 15 16 17 17 14 14 15 15 14 13 13 13 13 13 13 14 13 13 13 18 19 17 16 17 16 17 18 22 22 22 21 21 21 21 20 20 21 21 21 20 20 20 20 20 21 22 22 21 20 20 20 21 22 22 21 19 20 21 21 22 23 22 22 22 22 22 22 25 25 24 23
14 15 15 15 16 16 15 15 15 15 15 16 15 15 15 15 17 18 17 14 14 14 14 14 14 13 12 12 13 13 13 14 14 15 16 21 23 23 18 17 18 21 23 22 22 21 21 20 20 20 21 22 22 21 21 20 20 20 21 22 22 22 20 21 21 21 20 19 20 20 18 19 20 21 21 21 21 21 22 22 22 22 22 23 23 23
14 14 13 14 14 14 15 15 14 14 13 14 15 15 15 14 15 16 17 15 13 13 12 13 13 14 13 14 14 13 13 14 15 17 17 19 22 23 23 22 22 23 23 23 23 22 22 21 21 21 21 21 21 21 21 21 20 20 20 21 21 21 21 21 21 20 19 19 19 19 19 19 20 21 21 21 21 21 22 22 22 22 21 22 22 23
13 13 12 12 13 13 13 13 13 13 13 14 14 15 14 13 13 14 16 15 13 13 13 13 13 13 13 14 13 13 13 13 14 15 16 18 21 23 25 24 25 25 24 24 24 23 23 23 22 22 22 21 21 20 21 21 21 20 20 19 19 19 19 19 19 19 19 20 20 20 18 19 20 20 21 21 21 21 21 22 22 22 22 22 22 22
14 14 13 13 13 12 12 13 12 12 13 13 13 14 14 13 14 14 13 13 13 14 15 13 12 12 13 13 13 14 15 14 15 16 18 18 19 22 25 25 25 25 26 25 25 25 24 24 24 23 22 22 21 20 20 20 20 20 20 20 20 20 21 19 19 18 19 20 20 19 19 21 21 21 21 21 21 21 21 22 22 22 23 23 23 23
14 13 13 13 12 11 11 12 11 11 12 12 13 13 13 15 18 19 14 12 12 13 14 14 13 13 13 12 13 15 17 17 17 17 19 19 19 20 22 25 25 25 25 26 26 26 26 26 26 25 25 24 22 22 21 20 20 19 19 19 19 20 21 20 20 20 20 20 21 22 23 23 22 22 22 22 22 22 22 22 22 23 23 23 23 23
13 13 13 13 12 11 11 12 12 12 12 13 13 12 11 12 14 16 14 13 13 13 13 13 13 13 13 13 13 14 16 15 16 17 19 20 20 20 20 23 24 24 24 23 24 24 24 24 25 26 27 26 25 24 22 21 20 19 18 18 19 19 20 20 21 21 21 21 22 24 23 23 23 24 24 23 22 22 22 22 22 22 22 22 22 23
14 13 13 12 12 12 12 12 13 13 13 13 14 13 12 12 12 13 12 13 13 13 12 13 13 13 14 14 15 16 16 15 16 17 19 20 20 21 22 22 22 22 22 21 21 21 21 20 20 20 22 26 27 26 24 22 20 18 17 17 18 18 18 19 20 21 22 23 23 23 22 22 23 24 24 23 22 22 21 21 20 21 21 21 21 21